DW5918 Weather Reports


Display with metric or nautical units.
time (UTC)temp
F
wind
direction
speed
MPH
gust
MPH
rain 1hr
in
rain 24hr
in
rain mn
in
humidity
%
barometer
mb
20260507070118 44 301 0.0 3.0 0.01 0.39 0.01 1 1008.0
20260507064529 44 301 0.0 1.0 0.01 0.39 0.01 1 1007.7
20260507063129 44 301 1.0 4.0 0.00 0.38 0.00 1 1008.1
20260507061546 44 309 0.0 3.0 0.00 0.38 0.00 1 1007.8
20260507060004 44 321 0.0 2.0 0.00 0.38 0.00 1 1007.5
20260507054559 44 313 0.0 3.0 0.00 0.38 0.00 1 1007.8
20260507053025 44 309 0.0 3.0 0.00 0.38 0.00 1 1008.0
20260507051615 44 360 0.0 4.0 0.00 0.38 0.00 1 1008.1
20260507050036 44 323 1.0 6.0 0.00 0.38 0.00 1 1007.9
20260507044629 45 267 0.0 4.0 0.00 0.38 0.00 1 1008.1
20260507043040 45 304 1.0 5.0 0.00 0.38 0.00 1 1008.4
20260507041503 45 317 0.0 3.0 0.00 0.38 0.00 1 1007.9
20260507040051 45 309 0.0 6.0 0.00 0.38 0.00 1 1007.5
20260507034501 45 360 0.0 8.0 0.00 0.38 0.38 1 1007.7
20260507031512 46 285 1.0 6.0 0.01 0.38 0.38 1 1007.9
20260507030100 46 360 0.0 5.0 0.01 0.38 0.38 1 1008.1
20260507024525 46 304 1.0 4.0 0.01 0.38 0.38 1 1008.0
20260507023117 46 309 1.0 4.0 0.01 0.38 0.38 1 1007.8
20260507021540 46 360 1.0 5.0 0.02 0.37 0.37 1 1008.1
20260507020132 47 313 0.0 5.0 0.04 0.37 0.37 1 1008.1
20260507014555 47 313 0.0 5.0 0.05 0.37 0.37 1 1007.7
20260507013033 48 250 0.0 6.0 0.05 0.37 0.37 1 1007.6
20260507010015 50 304 1.0 3.0 0.04 0.33 0.33 1 1007.3
20260507004610 50 312 1.0 4.0 0.03 0.32 0.32 1 1007.0
20260507003028 51 284 0.0 7.0 0.03 0.32 0.32 1 1006.7
20260507001625 53 328 3.0 12.0 0.03 0.32 0.32 1 1006.4
20260507000038 57 327 1.0 10.0 0.00 0.28 0.28 1 1006.0
20260506234633 57 235 0.0 8.0 0.00 0.28 0.28 1 1005.4
20260506233057 57 239 1.0 4.0 0.00 0.28 0.28 1 1005.2
20260506231504 57 186 0.0 6.0 0.00 0.28 0.28 1 1005.1
20260506230103 57 236 1.0 8.0 0.00 0.28 0.28 1 1005.1
20260506224517 57 246 1.0 4.0 0.00 0.28 0.28 1 1004.9
20260506223113 57 225 1.0 3.0 0.01 0.28 0.28 1 1004.9
20260506221532 57 221 0.0 2.0 0.04 0.28 0.28 1 1004.9
20260506214542 57 221 0.0 3.0 0.07 0.28 0.28 1 1005.0
20260506213003 57 186 0.0 2.0 0.05 0.27 0.27 1 1004.8
20260506211609 57 185 0.0 6.0 0.04 0.25 0.25 1 1004.9
20260506210021 57 196 0.0 4.0 0.02 0.22 0.22 1 1004.9
20260506204602 57 234 1.0 9.0 0.04 0.22 0.22 1 1004.9
20260506203018 57 199 1.0 3.0 0.04 0.22 0.22 1 1005.0
20260506201614 57 212 1.0 4.0 0.04 0.21 0.21 1 1005.1
20260506200039 57 188 1.0 7.0 0.05 0.20 0.20 1 1005.2
20260506194626 57 205 1.0 6.0 0.04 0.18 0.18 1 1005.3
20260506193041 57 189 2.0 10.0 0.07 0.18 0.18 1 1005.5
20260506191632 57 198 2.0 5.0 0.07 0.17 0.17 1 1005.5
20260506190046 57 209 3.0 9.0 0.07 0.15 0.15 1 1005.5
20260506184504 58 188 2.0 6.0 0.07 0.14 0.14 1 1005.6
20260506183059 58 196 1.0 7.0 0.04 0.11 0.11 1 1005.8
20260506181524 58 178 2.0 6.0 0.04 0.10 0.10 1 1006.0
20260506180112 58 214 2.0 5.0 0.05 0.08 0.08 1 1006.2
20260506174532 58 189 2.0 8.0 0.06 0.07 0.07 1 1005.9
20260506173124 58 185 0.0 5.0 0.07 0.07 0.07 1 1006.0
20260506171548 59 178 2.0 4.0 0.06 0.06 0.06 1 1006.2
20260506170130 59 189 1.0 4.0 0.03 0.03 0.03 11 1006.9
20260506164553 60 189 0.0 4.0 0.01 0.01 0.01 29 1007.0
20260506163132 61 189 0.0 3.0 0.00 0.00 0.00 40 1006.8
20260506161552 61 199 1.0 7.0 0.00 0.00 0.00 52 1006.9
20260506160014 61 183 1.0 5.0 0.00 0.00 0.00 58 1007.1
20260506154558 61 199 1.0 4.0 0.00 0.00 0.00 60 1007.1
20260506153022 61 209 0.0 3.0 0.00 0.00 0.00 60 1007.4
20260506151610 61 209 1.0 5.0 0.00 0.00 0.00 58 1007.5
20260506150036 60 171 1.0 4.0 0.00 0.00 0.00 59 1007.8
20260506144624 61 171 0.0 4.0 0.00 0.00 0.00 59 1007.8
20260506141505 61 249 0.0 4.0 0.00 0.00 0.00 62 1007.8
20260506134513 62 208 0.0 5.0 0.00 0.00 0.00 63 1007.6
20260506133110 62 197 4.0 9.0 0.00 0.00 0.00 64 1007.3
20260506131535 61 182 1.0 10.0 0.00 0.00 0.00 62 1007.4
20260506130127 61 172 1.0 3.0 0.00 0.00 0.00 59 1007.6
20260506124539 60 254 1.0 4.0 0.00 0.00 0.00 56 1007.7
20260506123124 60 248 0.0 2.0 0.00 0.00 0.00 45 1008.0
20260506121534 58 182 0.0 7.0 0.00 0.00 0.00 32 1008.2
20260506120129 57 182 0.0 4.0 0.00 0.00 0.00 20 1008.2
20260506114541 56 211 1.0 6.0 0.00 0.00 0.00 18 1008.3
20260506113126 56 188 1.0 4.0 0.00 0.00 0.00 14 1008.0
20260506110010 56 200 1.0 6.0 0.00 0.00 0.00 15 1008.0
20260506104601 55 193 1.0 5.0 0.00 0.00 0.00 14 1008.3
20260506103026 55 186 1.0 5.0 0.00 0.00 0.00 17 1008.2
20260506101611 55 183 1.0 6.0 0.00 0.00 0.00 22 1008.1
20260506100034 55 194 1.0 3.0 0.00 0.00 0.00 26 1007.7
20260506094628 55 194 0.0 3.0 0.00 0.00 0.00 31 1007.7
20260506093051 55 183 0.0 3.0 0.00 0.00 0.00 37 1007.5
20260506091503 55 188 1.0 4.0 0.00 0.00 0.00 41 1007.7
20260506084509 56 189 0.0 4.0 0.00 0.00 0.00 52 1007.8
20260506083104 56 192 0.0 4.0 0.00 0.00 0.00 57 1007.8
20260506081517 56 186 0.0 3.0 0.00 0.00 0.00 60 1008.0
20260506073123 57 180 0.0 0.0 0.00 0.00 0.00 66 1007.8
20260506071548 58 180 0.0 1.0 0.00 0.00 0.00 67 1007.8